カタログに戻る

STARLINK-31102

運用中通信VLEO
NORAD 58715·PAYLOAD·🇺🇸 United States

打ち上げ Jan 3, 2024 から Vandenberg Space Force Base

Loading…

次のパス (今後24時間)

TLE

最新Source: CelesTrak SupGP

元期: Sep 14, 2026, 20:53 UTC

1 58715C 24002L   26257.87062500  .00010649  00000+0  31472-3 0  2570
2 58715  53.1591  68.0723 0001057  81.3221 290.5343 15.34375177    18

AllMySatでSTARLINK-31102をリアルタイム追跡

Download on the App Store